loading
DOY 175 | 2024-06-23T12:04:04Z

STARLINK-31879, 59937

Orbit data source: Space-Track

STARLINK-31879, 59937 is a payload satellite owned by SpaceX/Seattle (US) in LEO that was launched on Sat, 01 Jun 2024 UTC via a Falcon 9 launch vehicle from the Air Force Eastern Test Range (AFETR). Payloads include a variety of satellites, spacecraft, and rockets equipped with specific instruments for various scientific and technological missions. These include communications satellites like Starlink; space stations such as the ISS; scientific satellites like the Hubble; Earth observation satellites from companies like Planet Labs, Umbra, and HawkEye 360; GPS; miniature CubeSats for education and research; and military/defense satellites.

Loading next visibility...
Loading greatness...
STARLINK-31879 details
NORAD ID59937
COSPAR ID
2024-106R
Orbit
LEO
Last TLE update6 hours ago
Origin
Flag of USSpaceX/Seattle (US)
ManufacturerSpaceX/Seattle
BusStarlink V2M
MotorUnknown
Mass750 kg wet, ~700 kg dry
Launch date (UTC)
2024-06-01 (3 weeks ago)
Launch vehicle
Falcon 9
Launch site
Air Force Eastern Test Range (AFETR)
Object type
Payload
Rocket body
Debris
Radar Cross SectionLarge (>1 m²)
Predictive object data (real-time)
Latitude-35.57696°
Longitude156.68859°
Altitude390.708 km
Speed7.677 km/s
Apparent Right ascension10h 52m 10s
Apparent Declination-37° 35' 44"
Sunlit
Object is in daylight
Predictive observer data (real-time)
Local Sidereal Time23:12:12
Azimuth60.861° ENE
Elevation-85.459°
Doppler factor1
Orbital elements
Apogee381.469 km
Perigee379.665 km
Semi-major axis6,758.704 km
Eccentricity0.0001334
Inclination42.9994°
RAAN290.3875°
Arg. of periapsis268.5664°
True anomaly345.63071°
Mean anomaly345.6345°
Mean motion3.90614 °/min
BSTAR-0.020311
Period92.16 mins
Definitive object data (Epoch: 2024-06-23T06:00:00.999Z)
Latitude-41.17833°
Longitude177.36474°
Altitude390.225 km
Speed7.677 km/s
True Right ascension11h 57m 04s
True Declination-40° 59' 55"
Sunlit
Object was in daylight at TLE epoch
TLE from 6 hours ago
0 STARLINK-31879
1 59937U 24106R   24175.25001157 -.01678192  00000-0 -20311-1 0  9990
2 59937  42.9994 290.3875 0001334 268.5664 345.6345 15.63140550  4716
Epoch: 2024-06-23T06:00Z
No data available

STARLINK-31879 Visibility forecast

Observer location: 39.9160978°, -105.1181434, 0m alt.

STARLINK-31879 is not visible in the next 10 days
Span
Click to sort rows by Start time (UTC) header in descending order
Start Az.
Max El. time (UTC)
Max El. Az.
Max El.
End time (UTC)
End Az.